#timestamp,LO_Frequency,Hit,StdDev 
1658304015.2,286047002.2,N
1658304035.1,286047001.6,N
1658304036.0,286047001.6,N
1658304055.8,286047004.4,Y
1658304075.6,286047004.2,P
1658304095.5,286047001.4,N
1658304115.3,286047002.2,N
1658304135.1,286047001.4,N
1658304155.9,286047002.8,N
1658304175.7,286046998.9,N
1658304195.6,286046999.3,N
1658304215.4,286046998.4,N
1658304235.2,286046998.8,N
1658304255.1,286046997.2,N
1658304256.0,286046997.2,N
1658304275.8,286046999.6,N
1658304295.7,286046996.7,N
1658304315.5,286046997.3,N
1658304335.3,286046997.4,N
1658304355.2,286046997.4,N
1658304375.9,286046999.2,N
1658304395.7,286047000.8,N
1658304415.6,286046998.4,N
1658304435.4,286046999.0,N
1658304455.2,286046998.5,N
1658304475.1,286046996.7,N
1658304476.0,286046996.7,N
1658304495.8,286046997.0,N
1658304515.7,286046999.5,N
1658304535.5,286046996.7,N
1658304555.3,286046995.0,N
1658304575.2,286046995.9,N
1658304595.0,286046995.3,N
1658304595.9,286046995.3,N
1658304615.7,286046995.0,N
1658304635.6,286046995.1,N
1658304655.4,286046997.7,N
1658304675.3,286046997.4,N
1658304695.1,286046997.0,N
1658304715.8,286046999.6,N
1658304735.7,286046998.7,N
1658304755.5,286046996.5,N
1658304775.4,286046997.2,N
1658304795.2,286046995.1,Y
1658304815.0,286046997.0,P
1658304815.9,286046997.0,P
1658304835.8,286046996.8,P
1658304855.6,286046999.5,N
1658304875.5,286046998.7,N
1658304895.3,286047001.0,N
1658304915.1,286046998.2,N
1658304935.9,286046999.6,N
1658304955.7,286046997.8,N
1658304975.5,286046999.1,N
1658304995.4,286046999.2,N
1658305015.2,286047000.8,N
1658305035.1,286047000.3,N
1658305036.0,286047000.3,N
1658305055.8,286047000.1,N
1658305075.6,286047002.2,N
1658305095.5,286047002.1,N
1658305115.3,286047002.3,N
1658305135.1,286046999.7,N
1658305155.9,286046999.9,N
1658305175.7,286046999.9,N
1658305195.6,286047002.4,N
1658305215.4,286046999.8,N
1658305235.2,286047000.5,N
1658305255.1,286046998.5,N
1658305256.0,286046998.5,N
1658305275.8,286046999.1,N
1658305295.6,286046999.3,N
1658305315.5,286046998.1,N
1658305335.3,286046999.0,N
1658305355.2,286047000.9,N
1658305375.9,286046998.6,N
1658305395.7,286046999.4,N
1658305415.6,286047001.1,N
1658305435.4,286046998.8,N
1658305455.2,286046998.6,N
1658305475.1,286047001.2,N
1658305476.0,286047001.2,N
1658305495.8,286046998.2,N
1658305515.7,286046998.4,N
1658305535.5,286046999.1,N
1658305555.3,286046996.9,N
1658305575.2,286046997.8,N
1658305595.9,286046999.1,N
1658305615.7,286046999.6,N
1658305635.6,286046995.3,Y
1658305655.4,286046997.7,P
1658305675.3,286046999.2,N
1658305695.1,286046999.6,N
1658305696.0,286046999.6,N
1658305715.8,286046997.1,Y
1658305735.7,286046999.6,P
1658305755.5,286046997.0,P
1658305775.3,286046997.3,N
1658305795.2,286046996.9,N
1658305815.0,286046997.2,N
1658305815.9,286046997.2,N
1658305835.8,286046996.7,Y
1658305855.6,286046998.1,P
1658305875.4,286047000.4,N
1658305895.3,286047000.8,N
1658305915.1,286046998.1,N
1658305935.8,286047000.5,N
1658305955.7,286047000.0,N
1658305975.5,286047000.6,N
1658305995.4,286047000.0,N
1658306015.2,286047000.0,N
1658306035.0,286047000.6,N
1658306035.9,286047000.6,N
1658306055.8,286046996.6,Y
1658306075.6,286046998.2,P
1658306095.4,286046999.4,N
1658306115.3,286047001.0,N
1658306135.1,286047000.3,N
1658306155.9,286046999.9,N
1658306175.7,286047001.1,N
1658306195.5,286046999.2,N
1658306215.4,286046999.6,N
1658306235.2,286046998.4,N
1658306255.0,286046998.6,N
1658306255.9,286046998.6,N
1658306275.8,286046999.0,N
1658306295.6,286046998.4,N
1658306315.5,286046998.7,N
1658306335.3,286046998.5,N
1658306355.1,286046998.7,N
1658306375.9,286046998.5,N
1658306395.7,286046996.9,Y
1658306415.5,286046998.4,P
1658306435.4,286047000.8,N
1658306455.2,286046998.6,N
1658306475.1,286046998.2,N
1658306476.0,286046998.2,N
1658306495.8,286046999.1,N
1658306515.6,286047002.3,N
1658306535.5,286047000.8,N
1658306555.3,286047000.1,N
1658306575.1,286047000.0,N
1658306595.9,286047000.4,N
1658306615.7,286046999.7,N
1658306635.6,286047002.4,N
1658306655.4,286046999.8,N
1658306675.2,286047000.2,N
1658306695.1,286047000.3,N
1658306696.0,286047000.3,N
1658306715.8,286047000.0,N
1658306735.6,286047000.3,N
1658306755.5,286047000.9,N
1658306775.3,286047001.0,N
1658306795.2,286047000.5,N
1658306815.9,286046998.1,N
1658306835.7,286046999.0,N
1658306855.6,286046998.9,N
1658306875.4,286046998.8,N
1658306895.2,286046999.3,N
1658306915.1,286047000.8,N
1658306916.0,286047000.8,N
1658306935.8,286047000.6,N
1658306955.7,286046999.7,N
1658306975.5,286047002.2,N
1658306995.3,286047001.6,N
1658307015.2,286047001.4,N
1658307035.9,286047002.7,N
1658307055.7,286047002.6,N
1658307075.6,286047002.3,N
1658307095.4,286047000.3,N
1658307115.3,286046999.9,N
1658307135.1,286047000.4,N
1658307136.0,286047000.4,N
1658307155.8,286047000.2,N
1658307175.7,286047001.0,N
1658307195.5,286047001.2,N
1658307215.3,286046999.1,N
1658307235.2,286046999.5,N
1658307255.0,286046997.1,N
1658307255.9,286046997.1,N
1658307275.8,286046997.4,N
1658307295.6,286046996.9,N
1658307315.4,286046997.2,N
1658307335.3,286046997.1,N
1658307355.1,286046999.3,N
1658307375.8,286046999.5,N
1658307395.7,286046996.8,N
1658307415.5,286046999.2,N
1658307435.4,286046999.1,N
1658307455.2,286046998.9,N
1658307475.0,286046998.9,N
1658307475.9,286046998.9,N
1658307495.8,286046999.4,N
1658307515.6,286046996.9,N
1658307535.4,286046999.3,N
1658307555.3,286046999.6,N
1658307575.1,286046998.7,N
1658307595.9,286047000.8,N
